Year,Month,Day,Hour,Minute,Value (Times are PST for temperature in C)
2016,05,02,00,00,11.80
2016,05,02,00,01,11.80
2016,05,02,00,02,11.80
2016,05,02,00,03,11.90
2016,05,02,00,04,12.00
2016,05,02,00,05,12.20
2016,05,02,00,06,12.20
2016,05,02,00,07,12.30
2016,05,02,00,08,12.20
2016,05,02,00,09,12.10
2016,05,02,00,10,12.10
2016,05,02,00,11,12.00
2016,05,02,00,12,12.00
2016,05,02,00,13,12.00
2016,05,02,00,14,11.90
2016,05,02,00,15,11.90
2016,05,02,00,16,11.80
2016,05,02,00,17,11.80
2016,05,02,00,18,11.80
2016,05,02,00,19,11.70
2016,05,02,00,20,11.80
2016,05,02,00,21,11.80
2016,05,02,00,22,11.80
2016,05,02,00,23,11.80
2016,05,02,00,24,11.80
2016,05,02,00,25,11.80
2016,05,02,00,26,11.80
2016,05,02,00,27,11.90
2016,05,02,00,28,11.90
2016,05,02,00,29,11.90
2016,05,02,00,30,11.90
2016,05,02,00,31,11.90
2016,05,02,00,32,11.80
2016,05,02,00,33,11.70
2016,05,02,00,34,11.70
2016,05,02,00,35,11.60
2016,05,02,00,36,11.60
2016,05,02,00,37,11.50
2016,05,02,00,38,11.40
2016,05,02,00,39,11.30
2016,05,02,00,40,11.20
2016,05,02,00,41,11.20
2016,05,02,00,42,11.10
2016,05,02,00,43,11.10
2016,05,02,00,44,11.10
2016,05,02,00,45,11.10
2016,05,02,00,46,11.10
2016,05,02,00,47,11.20
2016,05,02,00,48,11.20
2016,05,02,00,49,11.20
2016,05,02,00,50,11.20
2016,05,02,00,51,11.20
2016,05,02,00,52,11.30
2016,05,02,00,53,11.30
2016,05,02,00,54,11.40
2016,05,02,00,55,11.50
2016,05,02,00,56,11.50
2016,05,02,00,57,11.50
2016,05,02,00,58,11.50
2016,05,02,00,59,11.50
2016,05,02,01,00,11.40
2016,05,02,01,01,11.40
2016,05,02,01,02,11.40
2016,05,02,01,03,11.30
2016,05,02,01,04,11.20
2016,05,02,01,05,11.20
2016,05,02,01,06,11.10
2016,05,02,01,07,11.10
2016,05,02,01,08,11.10
2016,05,02,01,09,11.10
2016,05,02,01,10,11.10
2016,05,02,01,11,11.10
2016,05,02,01,12,11.10
2016,05,02,01,13,11.10
2016,05,02,01,14,11.10
2016,05,02,01,15,11.10
2016,05,02,01,16,11.10
2016,05,02,01,17,11.10
2016,05,02,01,18,11.00
2016,05,02,01,19,11.00
2016,05,02,01,20,11.00
2016,05,02,01,21,10.90
2016,05,02,01,22,10.90
2016,05,02,01,23,10.90
2016,05,02,01,24,10.80
2016,05,02,01,25,10.80
2016,05,02,01,26,10.80
2016,05,02,01,27,10.70
2016,05,02,01,28,10.70
2016,05,02,01,29,10.70
2016,05,02,01,30,10.70
2016,05,02,01,31,10.70
2016,05,02,01,32,10.70
2016,05,02,01,33,10.70
2016,05,02,01,34,10.70
2016,05,02,01,35,10.60
2016,05,02,01,36,10.50
2016,05,02,01,37,10.50
2016,05,02,01,38,10.40
2016,05,02,01,39,10.40
2016,05,02,01,40,10.30
2016,05,02,01,41,10.30
2016,05,02,01,42,10.30
2016,05,02,01,43,10.30
2016,05,02,01,44,10.30
2016,05,02,01,45,10.30
2016,05,02,01,46,10.30
2016,05,02,01,47,10.30
2016,05,02,01,48,10.30
2016,05,02,01,49,10.30
2016,05,02,01,50,10.30
2016,05,02,01,51,10.30
2016,05,02,01,52,10.30
2016,05,02,01,53,10.30
2016,05,02,01,54,10.30
2016,05,02,01,55,10.30
2016,05,02,01,56,10.30
2016,05,02,01,57,10.40
2016,05,02,01,58,10.40
2016,05,02,01,59,10.40
2016,05,02,02,00,10.30
2016,05,02,02,01,10.30
2016,05,02,02,02,10.30
2016,05,02,02,03,10.30
2016,05,02,02,04,10.20
2016,05,02,02,05,10.20
2016,05,02,02,06,10.20
2016,05,02,02,07,10.20
2016,05,02,02,08,10.10
2016,05,02,02,09,10.10
2016,05,02,02,10,10.10
2016,05,02,02,11,10.10
2016,05,02,02,12,10.10
2016,05,02,02,13,10.00
2016,05,02,02,14,10.00
2016,05,02,02,15,10.00
2016,05,02,02,16,10.00
2016,05,02,02,17,10.00
2016,05,02,02,18,10.00
2016,05,02,02,19,10.00
2016,05,02,02,20,10.00
2016,05,02,02,21,10.00
2016,05,02,02,22,10.00
2016,05,02,02,23,10.00
2016,05,02,02,24,10.00
2016,05,02,02,25,9.90
2016,05,02,02,26,9.90
2016,05,02,02,27,9.90
2016,05,02,02,28,9.90
2016,05,02,02,29,9.90
2016,05,02,02,30,9.90
2016,05,02,02,31,9.90
2016,05,02,02,32,9.90
2016,05,02,02,33,9.90
2016,05,02,02,34,9.90
2016,05,02,02,35,9.80
2016,05,02,02,36,9.80
2016,05,02,02,37,9.80
2016,05,02,02,38,9.80
2016,05,02,02,39,9.70
2016,05,02,02,40,9.70
2016,05,02,02,41,9.70
2016,05,02,02,42,9.70
2016,05,02,02,43,9.70
2016,05,02,02,44,9.70
2016,05,02,02,45,9.60
2016,05,02,02,46,9.60
2016,05,02,02,47,9.60
2016,05,02,02,48,9.60
2016,05,02,02,49,9.60
2016,05,02,02,50,9.60
2016,05,02,02,51,9.60
2016,05,02,02,52,9.60
2016,05,02,02,53,9.60
2016,05,02,02,54,9.60
2016,05,02,02,55,9.50
2016,05,02,02,56,9.50
2016,05,02,02,57,9.50
2016,05,02,02,58,9.50
2016,05,02,02,59,9.50
2016,05,02,03,00,9.50
2016,05,02,03,01,9.50
2016,05,02,03,02,9.50
2016,05,02,03,03,9.50
2016,05,02,03,04,9.50
2016,05,02,03,05,9.40
2016,05,02,03,06,9.40
2016,05,02,03,07,9.40
2016,05,02,03,08,9.40
2016,05,02,03,09,9.40
2016,05,02,03,10,9.40
2016,05,02,03,11,9.40
2016,05,02,03,12,9.40
2016,05,02,03,13,9.40
2016,05,02,03,14,9.40
2016,05,02,03,15,9.40
2016,05,02,03,16,9.40
2016,05,02,03,17,9.40
2016,05,02,03,18,9.50
2016,05,02,03,19,9.50
2016,05,02,03,20,9.60
2016,05,02,03,21,9.60
2016,05,02,03,22,9.60
2016,05,02,03,23,9.60
2016,05,02,03,24,9.70
2016,05,02,03,25,9.70
2016,05,02,03,26,9.70
2016,05,02,03,27,9.60
2016,05,02,03,28,9.60
2016,05,02,03,29,9.60
2016,05,02,03,30,9.50
2016,05,02,03,31,9.50
2016,05,02,03,32,9.40
2016,05,02,03,33,9.40
2016,05,02,03,34,9.30
2016,05,02,03,35,9.30
2016,05,02,03,36,9.30
2016,05,02,03,37,9.30
2016,05,02,03,38,9.20
2016,05,02,03,39,9.20
2016,05,02,03,40,9.20
2016,05,02,03,41,9.20
2016,05,02,03,42,9.10
2016,05,02,03,43,9.10
2016,05,02,03,44,9.10
2016,05,02,03,45,9.00
2016,05,02,03,46,9.00
2016,05,02,03,47,8.90
2016,05,02,03,48,8.90
2016,05,02,03,49,8.80
2016,05,02,03,50,8.80
2016,05,02,03,51,8.80
2016,05,02,03,52,8.80
2016,05,02,03,53,8.80
2016,05,02,03,54,8.80
2016,05,02,03,55,8.70
2016,05,02,03,56,8.70
2016,05,02,03,57,8.70
2016,05,02,03,58,8.70
2016,05,02,03,59,8.70
2016,05,02,04,00,8.70
2016,05,02,04,01,8.60
2016,05,02,04,02,8.60
2016,05,02,04,03,8.60
2016,05,02,04,04,8.60
2016,05,02,04,05,8.60
2016,05,02,04,06,8.60
2016,05,02,04,07,8.60
2016,05,02,04,08,8.60
2016,05,02,04,09,8.60
2016,05,02,04,10,8.60
2016,05,02,04,11,8.50
2016,05,02,04,12,8.50
2016,05,02,04,13,8.50
2016,05,02,04,14,8.50
2016,05,02,04,15,8.40
2016,05,02,04,16,8.40
2016,05,02,04,17,8.40
2016,05,02,04,18,8.40
2016,05,02,04,19,8.30
2016,05,02,04,20,8.30
2016,05,02,04,21,8.30
2016,05,02,04,22,8.30
2016,05,02,04,23,8.30
2016,05,02,04,24,8.30
2016,05,02,04,25,8.30
2016,05,02,04,26,8.30
2016,05,02,04,27,8.20
2016,05,02,04,28,8.20
2016,05,02,04,29,8.20
2016,05,02,04,30,8.20
2016,05,02,04,31,8.20
2016,05,02,04,32,8.20
2016,05,02,04,33,8.20
2016,05,02,04,34,8.20
2016,05,02,04,35,8.10
2016,05,02,04,36,8.10
2016,05,02,04,37,8.10
2016,05,02,04,38,8.10
2016,05,02,04,39,8.10
2016,05,02,04,40,8.10
2016,05,02,04,41,8.10
2016,05,02,04,42,8.10
2016,05,02,04,43,8.10
2016,05,02,04,44,8.10
2016,05,02,04,45,8.10
2016,05,02,04,46,8.10
2016,05,02,04,47,8.10
2016,05,02,04,48,8.10
2016,05,02,04,49,8.10
2016,05,02,04,50,8.10
2016,05,02,04,51,8.10
2016,05,02,04,52,8.10
2016,05,02,04,53,8.10
2016,05,02,04,54,8.10
2016,05,02,04,55,8.10
2016,05,02,04,56,8.10
2016,05,02,04,57,8.10
2016,05,02,04,58,8.10
2016,05,02,04,59,8.10
2016,05,02,05,00,8.10
2016,05,02,05,01,8.10
2016,05,02,05,02,8.10
2016,05,02,05,03,8.10
2016,05,02,05,04,8.10
2016,05,02,05,05,8.10
2016,05,02,05,06,8.10
2016,05,02,05,07,8.10
2016,05,02,05,08,8.10
2016,05,02,05,09,8.10
2016,05,02,05,10,8.10
2016,05,02,05,11,8.10
2016,05,02,05,12,8.10
2016,05,02,05,13,8.10
2016,05,02,05,14,8.10
2016,05,02,05,15,8.10
2016,05,02,05,16,8.10
2016,05,02,05,17,8.10
2016,05,02,05,18,8.10
2016,05,02,05,19,8.10
2016,05,02,05,20,8.10
2016,05,02,05,21,8.10
2016,05,02,05,22,8.10
2016,05,02,05,23,8.10
2016,05,02,05,24,8.10
2016,05,02,05,25,8.10
2016,05,02,05,26,8.10
2016,05,02,05,27,8.10
2016,05,02,05,28,8.10
2016,05,02,05,29,8.10
2016,05,02,05,30,8.10
2016,05,02,05,31,8.10
2016,05,02,05,32,8.10
2016,05,02,05,33,8.10
2016,05,02,05,34,8.10
2016,05,02,05,35,8.10
2016,05,02,05,36,8.10
2016,05,02,05,37,8.00
2016,05,02,05,38,8.00
2016,05,02,05,39,8.00
2016,05,02,05,40,7.90
2016,05,02,05,41,7.90
2016,05,02,05,42,7.90
2016,05,02,05,43,7.90
2016,05,02,05,44,7.80
2016,05,02,05,45,7.80
2016,05,02,05,46,7.80
2016,05,02,05,47,7.80
2016,05,02,05,48,7.80
2016,05,02,05,49,7.80
2016,05,02,05,50,7.80
2016,05,02,05,51,7.80
2016,05,02,05,52,7.80
2016,05,02,05,53,7.80
2016,05,02,05,54,7.80
2016,05,02,05,55,7.80
2016,05,02,05,56,7.70
2016,05,02,05,57,7.70
2016,05,02,05,58,7.70
2016,05,02,05,59,7.70
2016,05,02,06,00,7.70
2016,05,02,06,01,7.70
2016,05,02,06,02,7.70
2016,05,02,06,03,7.70
2016,05,02,06,04,7.80
2016,05,02,06,05,7.80
2016,05,02,06,06,7.80
2016,05,02,06,07,7.90
2016,05,02,06,08,7.90
2016,05,02,06,09,7.90
2016,05,02,06,10,7.80
2016,05,02,06,11,7.80
2016,05,02,06,12,7.90
2016,05,02,06,13,7.90
2016,05,02,06,14,8.00
2016,05,02,06,15,8.00
2016,05,02,06,16,8.10
2016,05,02,06,17,8.10
2016,05,02,06,18,8.10
2016,05,02,06,19,8.20
2016,05,02,06,20,8.20
2016,05,02,06,21,8.30
2016,05,02,06,22,8.30
2016,05,02,06,23,8.30
2016,05,02,06,24,8.30
2016,05,02,06,25,8.40
2016,05,02,06,26,8.40
2016,05,02,06,27,8.40
2016,05,02,06,28,8.40
2016,05,02,06,29,8.40
2016,05,02,06,30,8.40
2016,05,02,06,31,8.40
2016,05,02,06,32,8.50
2016,05,02,06,33,8.50
2016,05,02,06,34,8.50
2016,05,02,06,35,8.50
2016,05,02,06,36,8.60
2016,05,02,06,37,8.60
2016,05,02,06,38,8.60
2016,05,02,06,39,8.70
2016,05,02,06,40,8.70
2016,05,02,06,41,8.70
2016,05,02,06,42,8.70
2016,05,02,06,43,8.80
2016,05,02,06,44,8.80
2016,05,02,06,45,8.80
2016,05,02,06,46,8.80
2016,05,02,06,47,8.80
2016,05,02,06,48,8.80
2016,05,02,06,49,8.80
2016,05,02,06,50,8.80
2016,05,02,06,51,8.80
2016,05,02,06,52,8.80
2016,05,02,06,53,8.90
2016,05,02,06,54,9.00
2016,05,02,06,55,9.10
2016,05,02,06,56,9.20
2016,05,02,06,57,9.20
2016,05,02,06,58,9.30
2016,05,02,06,59,9.40
2016,05,02,07,00,9.50
2016,05,02,07,01,9.60
2016,05,02,07,02,9.70
2016,05,02,07,03,9.70
2016,05,02,07,04,9.80
2016,05,02,07,05,9.80
2016,05,02,07,06,9.80
2016,05,02,07,07,9.90
2016,05,02,07,08,9.90
2016,05,02,07,09,10.00
2016,05,02,07,10,10.00
2016,05,02,07,11,10.10
2016,05,02,07,12,10.20
2016,05,02,07,13,10.20
2016,05,02,07,14,10.30
2016,05,02,07,15,10.30
2016,05,02,07,16,10.40
2016,05,02,07,17,10.40
2016,05,02,07,18,10.50
2016,05,02,07,19,10.60
2016,05,02,07,20,10.70
2016,05,02,07,21,10.90
2016,05,02,07,22,11.00
2016,05,02,07,23,11.10
2016,05,02,07,24,11.20
2016,05,02,07,25,11.30
2016,05,02,07,26,11.30
2016,05,02,07,27,11.40
2016,05,02,07,28,11.50
2016,05,02,07,29,11.50
2016,05,02,07,30,11.60
2016,05,02,07,31,11.60
2016,05,02,07,32,11.70
2016,05,02,07,33,11.70
2016,05,02,07,34,11.80
2016,05,02,07,35,11.80
2016,05,02,07,36,11.90
2016,05,02,07,37,12.00
2016,05,02,07,38,12.10
2016,05,02,07,39,12.20
2016,05,02,07,40,12.40
2016,05,02,07,41,12.50
2016,05,02,07,42,12.60
2016,05,02,07,43,12.70
2016,05,02,07,44,12.80
2016,05,02,07,45,12.90
2016,05,02,07,46,13.00
2016,05,02,07,47,13.10
2016,05,02,07,48,13.20
2016,05,02,07,49,13.30
2016,05,02,07,50,13.40
2016,05,02,07,51,13.50
2016,05,02,07,52,13.60
2016,05,02,07,53,13.70
2016,05,02,07,54,13.80
2016,05,02,07,55,13.80
2016,05,02,07,56,13.90
2016,05,02,07,57,13.90
2016,05,02,07,58,14.00
2016,05,02,07,59,14.10
2016,05,02,08,00,14.20
2016,05,02,08,01,14.20
2016,05,02,08,02,14.30
2016,05,02,08,03,14.30
2016,05,02,08,04,14.30
2016,05,02,08,05,14.30
2016,05,02,08,06,14.40
2016,05,02,08,07,14.40
2016,05,02,08,08,14.50
2016,05,02,08,09,14.60
2016,05,02,08,10,14.60
2016,05,02,08,11,14.60
2016,05,02,08,12,14.60
2016,05,02,08,13,14.60
2016,05,02,08,14,14.60
2016,05,02,08,15,14.60
2016,05,02,08,16,14.60
2016,05,02,08,17,14.50
2016,05,02,08,18,14.50
2016,05,02,08,19,14.50
2016,05,02,08,20,14.50
2016,05,02,08,21,14.50
2016,05,02,08,22,14.50
2016,05,02,08,23,14.50
2016,05,02,08,24,14.50
2016,05,02,08,25,14.50
2016,05,02,08,26,14.60
2016,05,02,08,27,14.60
2016,05,02,08,28,14.70
2016,05,02,08,29,14.70
2016,05,02,08,30,14.80
2016,05,02,08,31,14.90
2016,05,02,08,32,14.90
2016,05,02,08,33,14.90
2016,05,02,08,34,15.00
2016,05,02,08,35,15.00
2016,05,02,08,36,15.00
2016,05,02,08,37,15.00
2016,05,02,08,38,15.00
2016,05,02,08,39,15.10
2016,05,02,08,40,15.10
2016,05,02,08,41,15.10
2016,05,02,08,42,15.20
2016,05,02,08,43,15.20
2016,05,02,08,44,15.20
2016,05,02,08,45,15.30
2016,05,02,08,46,15.30
2016,05,02,08,47,15.40
2016,05,02,08,48,15.50
2016,05,02,08,49,15.60
2016,05,02,08,50,15.80
2016,05,02,08,51,15.90
2016,05,02,08,52,16.00
2016,05,02,08,53,16.10
2016,05,02,08,54,16.10
2016,05,02,08,55,16.10
2016,05,02,08,56,16.10
2016,05,02,08,57,16.10
2016,05,02,08,58,16.00
2016,05,02,08,59,16.00
2016,05,02,09,00,15.90
2016,05,02,09,01,15.90
2016,05,02,09,02,15.90
2016,05,02,09,03,15.80
2016,05,02,09,04,15.80
2016,05,02,09,05,15.80
2016,05,02,09,06,15.70
2016,05,02,09,07,15.70
2016,05,02,09,08,15.70
2016,05,02,09,09,15.70
2016,05,02,09,10,15.70
2016,05,02,09,11,15.70
2016,05,02,09,12,15.70
2016,05,02,09,13,15.80
2016,05,02,09,14,15.80
2016,05,02,09,15,15.80
2016,05,02,09,16,15.90
2016,05,02,09,17,15.90
2016,05,02,09,18,15.90
2016,05,02,09,19,16.00
2016,05,02,09,20,16.00
2016,05,02,09,21,16.10
2016,05,02,09,22,16.10
2016,05,02,09,23,16.10
2016,05,02,09,24,16.10
2016,05,02,09,25,16.20
2016,05,02,09,26,16.20
2016,05,02,09,27,16.20
2016,05,02,09,28,16.10
2016,05,02,09,29,16.10
2016,05,02,09,30,16.10
2016,05,02,09,31,16.10
2016,05,02,09,32,16.10
2016,05,02,09,33,16.10
2016,05,02,09,34,16.10
2016,05,02,09,35,16.10
2016,05,02,09,36,16.10
2016,05,02,09,37,16.20
2016,05,02,09,38,16.20
2016,05,02,09,39,16.30
2016,05,02,09,40,16.30
2016,05,02,09,41,16.30
2016,05,02,09,42,16.30
2016,05,02,09,43,16.30
2016,05,02,09,44,16.30
2016,05,02,09,45,16.30
2016,05,02,09,46,16.30
2016,05,02,09,47,16.30
2016,05,02,09,48,16.30
2016,05,02,09,49,16.20
2016,05,02,09,50,16.20
2016,05,02,09,51,16.20
2016,05,02,09,52,16.30
2016,05,02,09,53,16.40
2016,05,02,09,54,16.30
2016,05,02,09,55,16.20
2016,05,02,09,56,16.20
2016,05,02,09,57,16.10
2016,05,02,09,58,16.00
2016,05,02,09,59,16.00
2016,05,02,10,00,15.90
2016,05,02,10,01,15.90
2016,05,02,10,02,15.90
2016,05,02,10,03,15.90
2016,05,02,10,04,15.90
2016,05,02,10,05,16.00
2016,05,02,10,06,16.10
2016,05,02,10,07,16.30
2016,05,02,10,08,16.30
2016,05,02,10,09,16.30
2016,05,02,10,10,16.30
2016,05,02,10,11,16.30
2016,05,02,10,12,16.30
2016,05,02,10,13,16.30
2016,05,02,10,14,16.30
2016,05,02,10,15,16.30
2016,05,02,10,16,16.30
2016,05,02,10,17,16.30
2016,05,02,10,18,16.40
2016,05,02,10,19,16.50
2016,05,02,10,20,16.60
2016,05,02,10,21,16.60
2016,05,02,10,22,16.60
2016,05,02,10,23,16.70
2016,05,02,10,24,16.70
2016,05,02,10,25,16.80
2016,05,02,10,26,16.80
2016,05,02,10,27,16.90
2016,05,02,10,28,16.90
2016,05,02,10,29,16.90
2016,05,02,10,30,16.90
2016,05,02,10,31,16.90
2016,05,02,10,32,17.00
2016,05,02,10,33,17.10
2016,05,02,10,34,17.20
2016,05,02,10,35,17.20
2016,05,02,10,36,17.30
2016,05,02,10,37,17.40
2016,05,02,10,38,17.40
2016,05,02,10,39,17.40
2016,05,02,10,40,17.30
2016,05,02,10,41,17.20
2016,05,02,10,42,17.10
2016,05,02,10,43,17.00
2016,05,02,10,44,16.90
2016,05,02,10,45,16.80
2016,05,02,10,46,16.80
2016,05,02,10,47,16.80
2016,05,02,10,48,16.90
2016,05,02,10,49,16.90
2016,05,02,10,50,16.80
2016,05,02,10,51,16.80
2016,05,02,10,52,16.80
2016,05,02,10,53,16.70
2016,05,02,10,54,16.70
2016,05,02,10,55,16.60
2016,05,02,10,56,16.60
2016,05,02,10,57,16.70
2016,05,02,10,58,16.70
2016,05,02,10,59,16.90
2016,05,02,11,00,17.00
2016,05,02,11,01,17.10
2016,05,02,11,02,17.10
2016,05,02,11,03,17.10
2016,05,02,11,04,17.10
2016,05,02,11,05,17.10
2016,05,02,11,06,17.10
2016,05,02,11,07,17.10
2016,05,02,11,08,17.00
2016,05,02,11,09,16.90
2016,05,02,11,10,16.80
2016,05,02,11,11,16.80
2016,05,02,11,12,16.70
2016,05,02,11,13,16.70
2016,05,02,11,14,16.60
2016,05,02,11,15,16.70
2016,05,02,11,16,16.80
2016,05,02,11,17,16.90
2016,05,02,11,18,17.00
2016,05,02,11,19,17.10
2016,05,02,11,20,17.20
2016,05,02,11,21,17.30
2016,05,02,11,22,17.30
2016,05,02,11,23,17.30
2016,05,02,11,24,17.40
2016,05,02,11,25,17.50
2016,05,02,11,26,17.70
2016,05,02,11,27,17.80
2016,05,02,11,28,17.90
2016,05,02,11,29,17.80
2016,05,02,11,30,17.70
2016,05,02,11,31,17.60
2016,05,02,11,32,17.60
2016,05,02,11,33,17.60
2016,05,02,11,34,17.60
2016,05,02,11,35,17.60
2016,05,02,11,36,17.70
2016,05,02,11,37,17.70
2016,05,02,11,38,17.80
2016,05,02,11,39,17.70
2016,05,02,11,40,17.60
2016,05,02,11,41,17.50
2016,05,02,11,42,17.40
2016,05,02,11,43,17.40
2016,05,02,11,44,17.40
2016,05,02,11,45,17.40
2016,05,02,11,46,17.40
2016,05,02,11,47,17.30
2016,05,02,11,48,17.30
2016,05,02,11,49,17.20
2016,05,02,11,50,17.30
2016,05,02,11,51,17.30
2016,05,02,11,52,17.40
2016,05,02,11,53,17.40
2016,05,02,11,54,17.40
2016,05,02,11,55,17.30
2016,05,02,11,56,17.30
2016,05,02,11,57,17.30
2016,05,02,11,58,17.30
2016,05,02,11,59,17.40
2016,05,02,12,00,17.40
2016,05,02,12,01,17.40
2016,05,02,12,02,17.30
2016,05,02,12,03,17.30
2016,05,02,12,04,17.30
2016,05,02,12,05,17.40
2016,05,02,12,06,17.30
2016,05,02,12,07,17.30
2016,05,02,12,08,17.20
2016,05,02,12,09,17.20
2016,05,02,12,10,17.20
2016,05,02,12,11,17.40
2016,05,02,12,12,17.50
2016,05,02,12,13,17.60
2016,05,02,12,14,17.70
2016,05,02,12,15,17.70
2016,05,02,12,16,17.70
2016,05,02,12,17,17.70
2016,05,02,12,18,17.70
2016,05,02,12,19,17.70
2016,05,02,12,20,17.70
2016,05,02,12,21,17.70
2016,05,02,12,22,17.80
2016,05,02,12,23,17.70
2016,05,02,12,24,17.60
2016,05,02,12,25,17.50
2016,05,02,12,26,17.40
2016,05,02,12,27,17.30
2016,05,02,12,28,17.30
2016,05,02,12,29,17.40
2016,05,02,12,30,17.50
2016,05,02,12,31,17.60
2016,05,02,12,32,17.60
2016,05,02,12,33,17.60
2016,05,02,12,34,17.60
2016,05,02,12,35,17.70
2016,05,02,12,36,17.70
2016,05,02,12,37,17.70
2016,05,02,12,38,17.80
2016,05,02,12,39,17.80
2016,05,02,12,40,17.90
2016,05,02,12,41,17.90
2016,05,02,12,42,18.00
2016,05,02,12,43,18.10
2016,05,02,12,44,18.10
2016,05,02,12,45,18.10
2016,05,02,12,46,18.10
2016,05,02,12,47,18.10
2016,05,02,12,48,18.20
2016,05,02,12,49,18.20
2016,05,02,12,50,18.30
2016,05,02,12,51,18.30
2016,05,02,12,52,18.40
2016,05,02,12,53,18.50
2016,05,02,12,54,18.60
2016,05,02,12,55,18.60
2016,05,02,12,56,18.60
2016,05,02,12,57,18.60
2016,05,02,12,58,18.60
2016,05,02,12,59,18.50
2016,05,02,13,00,18.50
2016,05,02,13,01,18.40
2016,05,02,13,02,18.50
2016,05,02,13,03,18.50
2016,05,02,13,04,18.50
2016,05,02,13,05,18.50
2016,05,02,13,06,18.40
2016,05,02,13,07,18.30
2016,05,02,13,08,18.30
2016,05,02,13,09,18.20
2016,05,02,13,10,18.20
2016,05,02,13,11,18.20
2016,05,02,13,12,18.20
2016,05,02,13,13,18.20
2016,05,02,13,14,18.30
2016,05,02,13,15,18.40
2016,05,02,13,16,18.50
2016,05,02,13,17,18.70
2016,05,02,13,18,18.90
2016,05,02,13,19,19.00
2016,05,02,13,20,19.20
2016,05,02,13,21,19.30
2016,05,02,13,22,19.30
2016,05,02,13,23,19.40
2016,05,02,13,24,19.40
2016,05,02,13,25,19.50
2016,05,02,13,26,19.60
2016,05,02,13,27,19.80
2016,05,02,13,28,19.90
2016,05,02,13,29,20.00
2016,05,02,13,30,20.10
2016,05,02,13,31,20.30
2016,05,02,13,32,20.30
2016,05,02,13,33,20.30
2016,05,02,13,34,20.20
2016,05,02,13,35,20.20
2016,05,02,13,36,20.10
2016,05,02,13,37,20.10
2016,05,02,13,38,20.20
2016,05,02,13,39,20.30
2016,05,02,13,40,20.50
2016,05,02,13,41,20.60
2016,05,02,13,42,20.70
2016,05,02,13,43,20.80
2016,05,02,13,44,20.90
2016,05,02,13,45,21.00
2016,05,02,13,46,21.20
2016,05,02,13,47,21.30
2016,05,02,13,48,21.40
2016,05,02,13,49,21.60
2016,05,02,13,50,21.70
2016,05,02,13,51,21.80
2016,05,02,13,52,22.00
2016,05,02,13,53,22.10
2016,05,02,13,54,22.30
2016,05,02,13,55,22.50
2016,05,02,13,56,22.70
2016,05,02,13,57,22.90
2016,05,02,13,58,23.10
2016,05,02,13,59,23.20
2016,05,02,14,00,23.40
2016,05,02,14,01,23.60
2016,05,02,14,02,23.80
2016,05,02,14,03,24.00
2016,05,02,14,04,24.20
2016,05,02,14,05,24.40
2016,05,02,14,06,24.60
2016,05,02,14,07,24.70
2016,05,02,14,08,24.80
2016,05,02,14,09,24.90
2016,05,02,14,10,24.90
2016,05,02,14,11,25.00
2016,05,02,14,12,25.00
2016,05,02,14,13,25.10
2016,05,02,14,14,25.10
2016,05,02,14,15,25.10
2016,05,02,14,16,25.10
2016,05,02,14,17,25.10
2016,05,02,14,18,25.10
2016,05,02,14,19,25.10
2016,05,02,14,20,25.10
2016,05,02,14,21,25.10
2016,05,02,14,22,25.10
2016,05,02,14,23,25.20
2016,05,02,14,24,25.20
2016,05,02,14,25,25.30
2016,05,02,14,26,25.40
2016,05,02,14,27,25.50
2016,05,02,14,28,25.50
2016,05,02,14,29,25.60
2016,05,02,14,30,25.60
2016,05,02,14,31,25.60
2016,05,02,14,32,25.60
2016,05,02,14,33,25.60
2016,05,02,14,34,25.50
2016,05,02,14,35,25.50
2016,05,02,14,36,25.50
2016,05,02,14,37,25.50
2016,05,02,14,38,25.50
2016,05,02,14,39,25.50
2016,05,02,14,40,25.60
2016,05,02,14,41,25.70
2016,05,02,14,42,25.80
2016,05,02,14,43,25.90
2016,05,02,14,44,25.90
2016,05,02,14,45,26.00
2016,05,02,14,46,26.10
2016,05,02,14,47,26.20
2016,05,02,14,48,26.20
2016,05,02,14,49,26.30
2016,05,02,14,50,26.40
2016,05,02,14,51,26.40
2016,05,02,14,52,26.50
2016,05,02,14,53,26.50
2016,05,02,14,54,26.40
2016,05,02,14,55,26.40
2016,05,02,14,56,26.30
2016,05,02,14,57,26.20
2016,05,02,14,58,26.20
2016,05,02,14,59,26.10
2016,05,02,15,00,26.00
2016,05,02,15,01,26.00
2016,05,02,15,02,25.90
2016,05,02,15,03,25.90
2016,05,02,15,04,25.90
2016,05,02,15,05,25.90
2016,05,02,15,06,25.90
2016,05,02,15,07,25.90
2016,05,02,15,08,26.00
2016,05,02,15,09,26.10
2016,05,02,15,10,26.20
2016,05,02,15,11,26.20
2016,05,02,15,12,26.40
2016,05,02,15,13,26.50
2016,05,02,15,14,26.60
2016,05,02,15,15,26.70
2016,05,02,15,16,26.80
2016,05,02,15,17,26.80
2016,05,02,15,18,26.80
2016,05,02,15,19,26.80
2016,05,02,15,20,26.80
2016,05,02,15,21,26.80
2016,05,02,15,22,26.80
2016,05,02,15,23,26.80
2016,05,02,15,24,26.80
2016,05,02,15,25,26.90
2016,05,02,15,26,26.90
2016,05,02,15,27,26.90
2016,05,02,15,28,26.90
2016,05,02,15,29,26.80
2016,05,02,15,30,26.80
2016,05,02,15,31,26.80
2016,05,02,15,32,26.90
2016,05,02,15,33,26.90
2016,05,02,15,34,26.90
2016,05,02,15,35,26.90
2016,05,02,15,36,26.90
2016,05,02,15,37,27.00
2016,05,02,15,38,27.00
2016,05,02,15,39,27.10
2016,05,02,15,40,27.10
2016,05,02,15,41,27.10
2016,05,02,15,42,27.10
2016,05,02,15,43,27.10
2016,05,02,15,44,27.00
2016,05,02,15,45,27.00
2016,05,02,15,46,26.90
2016,05,02,15,47,26.80
2016,05,02,15,48,26.80
2016,05,02,15,49,26.70
2016,05,02,15,50,26.60
2016,05,02,15,51,26.50
2016,05,02,15,52,26.40
2016,05,02,15,53,26.30
2016,05,02,15,54,26.20
2016,05,02,15,55,26.10
2016,05,02,15,56,26.00
2016,05,02,15,57,25.90
2016,05,02,15,58,25.90
2016,05,02,15,59,25.90
2016,05,02,16,00,26.00
2016,05,02,16,01,26.00
2016,05,02,16,02,26.10
2016,05,02,16,03,26.20
2016,05,02,16,04,26.20
2016,05,02,16,05,26.30
2016,05,02,16,06,26.30
2016,05,02,16,07,26.30
2016,05,02,16,08,26.40
2016,05,02,16,09,26.50
2016,05,02,16,10,26.50
2016,05,02,16,11,26.60
2016,05,02,16,12,26.70
2016,05,02,16,13,26.80
2016,05,02,16,14,26.90
2016,05,02,16,15,27.00
2016,05,02,16,16,27.10
2016,05,02,16,17,27.20
2016,05,02,16,18,27.20
2016,05,02,16,19,27.30
2016,05,02,16,20,27.30
2016,05,02,16,21,27.30
2016,05,02,16,22,27.30
2016,05,02,16,23,27.30
2016,05,02,16,24,27.30
2016,05,02,16,25,27.30
2016,05,02,16,26,27.30
2016,05,02,16,27,27.30
2016,05,02,16,28,27.30
2016,05,02,16,29,27.20
2016,05,02,16,30,27.20
2016,05,02,16,31,27.10
2016,05,02,16,32,27.10
2016,05,02,16,33,27.10
2016,05,02,16,34,27.10
2016,05,02,16,35,27.10
2016,05,02,16,36,27.10
2016,05,02,16,37,27.20
2016,05,02,16,38,27.30
2016,05,02,16,39,27.30
2016,05,02,16,40,27.30
2016,05,02,16,41,27.30
2016,05,02,16,42,27.30
2016,05,02,16,43,27.30
2016,05,02,16,44,27.30
2016,05,02,16,45,27.30
2016,05,02,16,46,27.30
2016,05,02,16,47,27.40
2016,05,02,16,48,27.50
2016,05,02,16,49,27.60
2016,05,02,16,50,27.60
2016,05,02,16,51,27.70
2016,05,02,16,52,27.70
2016,05,02,16,53,27.80
2016,05,02,16,54,27.80
2016,05,02,16,55,27.90
2016,05,02,16,56,27.90
2016,05,02,16,57,27.90
2016,05,02,16,58,27.90
2016,05,02,16,59,28.00
2016,05,02,17,00,28.10
2016,05,02,17,01,28.10
2016,05,02,17,02,28.20
2016,05,02,17,03,28.20
2016,05,02,17,04,28.20
2016,05,02,17,05,28.10
2016,05,02,17,06,28.00
2016,05,02,17,07,28.00
2016,05,02,17,08,27.90
2016,05,02,17,09,27.90
2016,05,02,17,10,27.80
2016,05,02,17,11,27.70
2016,05,02,17,12,27.60
2016,05,02,17,13,27.60
2016,05,02,17,14,27.60
2016,05,02,17,15,27.60
2016,05,02,17,16,27.60
2016,05,02,17,17,27.60
2016,05,02,17,18,27.70
2016,05,02,17,19,27.70
2016,05,02,17,20,27.80
2016,05,02,17,21,27.90
2016,05,02,17,22,28.10
2016,05,02,17,23,28.20
2016,05,02,17,24,28.30
2016,05,02,17,25,28.40
2016,05,02,17,26,28.40
2016,05,02,17,27,28.50
2016,05,02,17,28,28.60
2016,05,02,17,29,28.70
2016,05,02,17,30,28.70
2016,05,02,17,31,28.80